FW8535 Weather Reports


Display with metric or nautical units.
time (UTC)temp
F
wind
direction
speed
MPH
gust
MPH
rain 1hr
in
rain 24hr
in
rain mn
in
humidity
%
barometer
mb
20260904003013 84 234 8.0 16.0 0.00 0.00 0.00 24 1005.2
20260904002013 85 227 10.0 15.0 0.00 0.00 0.00 25 1005.2
20260904001512 85 229 8.0 17.0 0.00 0.00 0.00 25 1005.3
20260904001012 85 257 11.0 17.0 0.00 0.00 0.00 24 1005.2
20260904000514 86 239 7.0 16.0 0.00 0.00 0.00 23 1005.1
20260904000020 86 236 9.0 16.0 0.00 0.00 0.00 22 1004.9
20260903235514 86 241 9.0 17.0 0.00 0.00 0.00 22 1004.9
20260903235011 87 246 10.0 17.0 0.00 0.00 0.00 21 1004.8
20260903234514 87 251 9.0 15.0 0.00 0.00 0.00 22 1004.7
20260903234010 87 265 7.0 14.0 0.00 0.00 0.00 22 1004.6
20260903233509 87 300 6.0 14.0 0.00 0.00 0.00 23 1004.5
20260903233018 88 223 5.0 10.0 0.00 0.00 0.00 23 1004.5
20260903232009 88 273 8.0 15.0 0.00 0.00 0.00 23 1004.5
20260903231508 88 249 7.0 15.0 0.00 0.00 0.00 22 1004.5
20260903231008 88 241 7.0 15.0 0.00 0.00 0.00 22 1004.4
20260903230510 88 232 8.0 12.0 0.00 0.00 0.00 24 1004.2
20260903230012 88 233 6.0 10.0 0.00 0.00 0.00 25 1004.1
20260903225508 88 279 5.0 10.0 0.00 0.00 0.00 27 1004.1
20260903225006 88 348 2.0 14.0 0.00 0.00 0.00 27 1004.0
20260903224505 88 275 6.0 12.0 0.00 0.00 0.00 27 1003.9
20260903224004 88 198 7.0 11.0 0.00 0.00 0.00 28 1003.9
20260903223507 86 213 4.0 7.0 0.00 0.00 0.00 28 1003.9
20260903223003 85 232 3.0 7.0 0.00 0.00 0.00 30 1004.0
20260903222005 85 315 1.0 3.0 0.00 0.00 0.00 30 1004.0
20260903221505 85 15 0.0 3.0 0.00 0.00 0.00 30 1003.9
20260903221006 85 12 0.0 3.0 0.00 0.00 0.00 31 1003.8
20260903220505 86 9 1.0 3.0 0.00 0.00 0.00 30 1003.8
20260903220008 86 9 1.0 3.0 0.00 0.00 0.00 30 1003.8
20260903215505 87 51 1.0 3.0 0.00 0.00 0.00 30 1003.8
20260903215006 87 51 0.0 5.0 0.00 0.00 0.00 29 1003.8
20260903214507 87 47 2.0 7.0 0.00 0.00 0.00 29 1003.7
20260903214005 86 293 2.0 7.0 0.00 0.00 0.00 30 1003.8
20260903213503 86 29 3.0 5.0 0.00 0.00 0.00 31 1003.8
20260903213006 86 259 2.0 11.0 0.00 0.00 0.00 31 1003.7
20260903212004 86 290 3.0 9.0 0.00 0.00 0.00 31 1003.9
20260903211507 86 355 4.0 9.0 0.00 0.00 0.00 32 1003.8
20260903211003 85 306 3.0 8.0 0.00 0.00 0.00 32 1003.6
20260903210503 85 305 3.0 8.0 0.00 0.00 0.00 31 1003.7
20260903210003 86 278 3.0 11.0 0.00 0.00 0.00 30 1003.7
20260903205502 87 323 4.0 11.0 0.00 0.00 0.00 30 1003.6
20260903205003 86 19 4.0 8.0 0.00 0.00 0.00 30 1003.7
20260903204502 87 281 3.0 9.0 0.00 0.00 0.00 29 1003.5
20260903204004 87 294 4.0 9.0 0.00 0.00 0.00 31 1003.8
20260903203600 86 355 2.0 8.0 0.00 0.00 0.00 33 1003.6
20260903203132 86 11 4.0 10.0 0.00 0.00 0.00 33 1003.6
20260903202056 85 327 2.0 5.0 0.00 0.00 0.00 32 1003.9
20260903201556 84 309 0.0 4.0 0.00 0.00 0.00 32 1003.9
20260903201055 85 309 1.0 4.0 0.00 0.00 0.00 31 1003.8
20260903200555 85 323 1.0 8.0 0.00 0.00 0.00 31 1003.6
20260903200059 85 313 3.0 8.0 0.00 0.00 0.00 31 1003.9
20260903195554 85 291 3.0 9.0 0.00 0.00 0.00 34 1003.7
20260903195052 85 268 5.0 10.0 0.00 0.00 0.00 32 1003.8
20260903194556 84 248 5.0 10.0 0.00 0.00 0.00 35 1003.8
20260903194049 83 286 2.0 5.0 0.00 0.00 0.00 36 1003.9
20260903193549 83 330 2.0 5.0 0.00 0.00 0.00 41 1003.9
20260903193047 82 211 1.0 8.0 0.00 0.00 0.00 44 1003.7
20260903192049 81 183 2.0 8.0 0.00 0.00 0.00 45 1003.8
20260903191553 81 130 3.0 8.0 0.00 0.00 0.00 48 1003.7
20260903191148 81 127 2.0 8.0 0.00 0.00 0.00 48 1003.6
20260903190550 81 104 1.0 7.0 0.00 0.00 0.00 51 1003.8
20260903190045 80 20 0.0 5.0 0.00 0.00 0.00 52 1003.8
20260903185547 80 5 1.0 5.0 0.00 0.00 0.00 53 1003.8
20260903185043 80 51 3.0 8.0 0.00 0.00 0.00 54 1003.8
20260903184542 79 152 3.0 8.0 0.00 0.00 0.00 55 1003.7
20260903184041 78 39 2.0 5.0 0.00 0.00 0.00 56 1003.6
20260903183539 78 29 1.0 5.0 0.00 0.00 0.00 56 1003.7
20260903183043 77 25 1.0 9.0 0.00 0.00 0.00 58 1003.7
20260903182038 78 196 2.0 4.0 0.00 0.00 0.00 59 1004.2
20260903181535 77 144 0.0 3.0 0.00 0.00 0.00 60 1004.3
20260903181032 75 123 0.0 4.0 0.00 0.00 0.00 61 1004.1
20260903180533 75 117 1.0 6.0 0.00 0.00 0.00 62 1004.1
20260903180029 74 49 2.0 6.0 0.00 0.00 0.00 62 1004.3
20260903175532 73 106 1.0 3.0 0.00 0.00 0.00 64 1004.2
20260903175029 73 106 1.0 3.0 0.00 0.00 0.00 63 1004.2
20260903174529 73 106 0.0 3.0 0.00 0.00 0.00 64 1004.3
20260903174033 73 106 2.0 3.0 0.00 0.00 0.00 64 1004.4
20260903173530 73 110 0.0 3.0 0.00 0.00 0.00 65 1004.4
20260903173029 72 111 1.0 3.0 0.00 0.00 0.00 66 1004.6
20260903172029 72 108 0.0 6.0 0.00 0.00 0.00 66 1004.8
20260903171537 72 105 2.0 8.0 0.00 0.00 0.00 66 1004.8
20260903171031 72 5 3.0 8.0 0.00 0.00 0.00 65 1005.0
20260903170528 72 135 1.0 8.0 0.00 0.00 0.00 67 1005.0
20260903170029 71 136 2.0 8.0 0.00 0.00 0.00 67 1004.9
20260903165528 71 237 0.0 4.0 0.00 0.00 0.00 69 1004.8
20260903165027 70 237 2.0 4.0 0.00 0.00 0.00 68 1004.8
20260903164528 70 202 0.0 4.0 0.00 0.00 0.00 69 1004.9
20260903164028 70 202 0.0 4.0 0.00 0.00 0.00 70 1004.7
20260903163527 70 205 1.0 8.0 0.00 0.00 0.00 70 1004.7
20260903163027 69 240 3.0 9.0 0.00 0.00 0.00 71 1005.1
20260903162032 69 144 6.0 10.0 0.00 0.00 0.00 71 1004.6
20260903161532 69 135 4.0 8.0 0.00 0.00 0.00 71 1004.7
20260903161031 68 150 5.0 11.0 0.00 0.00 0.00 71 1004.7
20260903160532 69 132 5.0 12.0 0.00 0.00 0.00 70 1004.7
20260903160034 69 167 7.0 14.0 0.00 0.00 0.00 70 1005.1
20260903155534 69 194 9.0 14.0 0.00 0.00 0.00 70 1005.2
20260903155031 69 164 4.0 11.0 0.00 0.00 0.00 70 1005.1
20260903154538 69 202 7.0 18.0 0.00 0.00 0.00 70 1005.2
20260903154033 69 205 9.0 18.0 0.00 0.00 0.00 70 1005.5
20260903153529 69 233 10.0 15.0 0.00 0.00 0.00 72 1006.0
20260903153031 68 232 3.0 10.0 0.00 0.00 0.00 72 1005.5
20260903152029 67 236 5.0 8.0 0.00 0.00 0.00 74 1005.5
20260903151525 67 192 3.0 6.0 0.00 0.00 0.00 74 1005.4
20260903151025 67 232 1.0 5.0 0.00 0.00 0.00 74 1005.4
20260903150525 67 234 1.0 7.0 0.00 0.00 0.00 75 1005.5
20260903150027 67 234 4.0 7.0 0.00 0.00 0.00 75 1005.6
20260903145527 67 238 1.0 5.0 0.00 0.00 0.00 75 1005.5
20260903145029 67 239 3.0 5.0 0.00 0.00 0.00 75 1005.7
20260903144540 66 64 1.0 3.0 0.00 0.00 0.00 75 1005.5
20260903144025 66 53 0.0 3.0 0.00 0.00 0.00 76 1005.1
20260903143523 66 39 1.0 3.0 0.00 0.00 0.00 77 1004.7
20260903143038 65 16 0.0 3.0 0.00 0.00 0.00 77 1004.8
20260903142022 65 282 0.0 2.0 0.00 0.00 0.00 78 1005.1
20260903141523 65 282 0.0 2.0 0.00 0.00 0.00 78 1005.1
20260903141027 65 282 0.0 4.0 0.00 0.00 0.00 78 1005.3
20260903140522 64 281 1.0 4.0 0.00 0.00 0.00 78 1005.2
20260903140027 64 281 1.0 3.0 0.00 0.00 0.00 80 1005.2
20260903135520 64 292 1.0 3.0 0.00 0.00 0.00 80 1004.9
20260903135020 63 34 0.0 2.0 0.00 0.00 0.00 81 1004.3
20260903134519 63 38 0.0 1.0 0.00 0.00 0.00 81 1004.2
20260903134019 63 38 0.0 3.0 0.00 0.00 0.00 82 1004.1
20260903133524 63 37 1.0 3.0 0.00 0.00 0.00 82 1003.9
20260903133018 63 17 0.0 4.0 0.00 0.00 0.00 81 1003.9
20260903132618 63 11 2.0 7.0 0.00 0.00 0.00 81 1003.7
20260903132017 63 35 3.0 7.0 0.00 0.00 0.00 81 1003.6
20260903131517 63 51 3.0 7.0 0.00 0.00 0.00 80 1003.7
20260903131019 62 288 0.0 4.0 0.00 0.00 0.00 81 1004.2
20260903130516 62 286 2.0 4.0 0.00 0.00 0.00 81 1004.4
20260903130016 62 36 1.0 3.0 0.00 0.00 0.00 81 1003.8
20260903125516 62 36 0.0 2.0 0.00 0.00 0.00 81 1004.0
20260903125015 62 36 0.0 3.0 0.00 0.00 0.00 81 1004.0
20260903124514 62 36 0.0 3.0 0.00 0.00 0.00 81 1003.8
20260903124014 62 36 0.0 0.0 0.00 0.00 0.00 80 1003.9
20260903123514 62 36 0.0 0.0 0.00 0.00 0.00 81 1003.9
20260903123014 61 36 0.0 0.0 0.00 0.00 0.00 81 1003.7
20260903122017 62 36 0.0 0.0 0.00 0.00 0.00 80 1003.9
20260903121528 62 36 0.0 0.0 0.00 0.00 0.00 80 1003.8
20260903121015 62 36 0.0 0.0 0.00 0.00 0.00 80 1003.7
20260903120515 62 36 0.0 0.0 0.00 0.00 0.00 79 1003.8
20260903120030 62 36 0.0 3.0 0.00 0.00 0.00 79 1003.9
20260903115513 62 36 1.0 3.0 0.00 0.00 0.00 78 1003.7
20260903115016 63 36 0.0 3.0 0.00 0.00 0.00 78 1003.7
20260903114511 63 37 1.0 4.0 0.00 0.00 0.00 77 1003.7
20260903114010 63 37 1.0 4.0 0.00 0.00 0.00 77 1003.7
20260903113510 63 20 1.0 7.0 0.00 0.00 0.00 77 1003.6
20260903113018 63 32 2.0 5.0 0.00 0.00 0.00 77 1003.4
20260903112014 64 31 2.0 5.0 0.00 0.00 0.00 75 1003.6
20260903111511 64 16 1.0 4.0 0.00 0.00 0.00 74 1003.5
20260903111012 65 16 2.0 5.0 0.00 0.00 0.00 74 1003.5
20260903110510 65 15 2.0 6.0 0.00 0.00 0.00 74 1003.5
20260903110010 65 46 3.0 6.0 0.00 0.00 0.00 74 1003.6
20260903105507 65 9 3.0 9.0 0.00 0.00 0.00 73 1003.4
20260903105007 65 44 4.0 9.0 0.00 0.00 0.00 73 1003.3
20260903104507 65 42 3.0 9.0 0.00 0.00 0.00 73 1003.2
20260903104006 65 38 5.0 11.0 0.00 0.00 0.00 73 1003.2
20260903103507 64 48 5.0 9.0 0.00 0.00 0.00 73 1003.1
20260903103006 64 51 5.0 9.0 0.00 0.00 0.00 73 1003.1
20260903102002 64 26 3.0 8.0 0.00 0.00 0.00 73 1003.2
20260903101503 64 58 3.0 8.0 0.00 0.00 0.00 73 1002.8
20260903101001 64 34 3.0 8.0 0.00 0.00 0.00 73 1002.7
20260903100502 64 27 4.0 9.0 0.00 0.00 0.00 73 1002.7
20260903100003 64 58 5.0 9.0 0.00 0.00 0.00 73 1002.4
20260903095559 64 52 4.0 7.0 0.00 0.00 0.00 72 1002.6
20260903095101 65 32 3.0 6.0 0.00 0.00 0.00 71 1002.9
20260903094558 65 38 3.0 6.0 0.00 0.00 0.00 70 1003.0
20260903094056 65 46 2.0 6.0 0.00 0.00 0.00 69 1003.0
20260903093555 66 39 3.0 10.0 0.00 0.00 0.00 69 1002.7
20260903093053 66 19 3.0 10.0 0.00 0.00 0.00 68 1002.5
20260903092654 67 48 5.0 11.0 0.00 0.00 0.00 68 1002.5
20260903092055 67 36 5.0 10.0 0.00 0.00 0.00 67 1002.3
20260903091557 67 44 4.0 11.0 0.00 0.00 0.00 67 1002.5
20260903091053 68 36 5.0 14.0 0.00 0.00 0.00 66 1002.6
20260903090550 68 42 9.0 14.0 0.00 0.00 0.00 66 1002.5
20260903090050 69 42 6.0 11.0 0.00 0.00 0.00 67 1002.5
20260903090014 69 49 5.0 11.0 0.00 0.00 0.00 68 1002.4
20260903085549 69 65 5.0 13.0 0.00 0.00 0.00 70 1002.5
20260903085049 68 5 5.0 13.0 0.00 0.00 0.00 68 1002.4
20260903084551 68 26 4.0 8.0 0.00 0.00 0.00 67 1002.6
20260903084049 68 10 4.0 11.0 0.00 0.00 0.00 67 1002.8
20260903083548 68 11 6.0 13.0 0.00 0.00 0.00 67 1002.8
20260903083047 68 30 6.0 14.0 0.00 0.00 0.00 66 1002.8
20260903082647 69 10 2.0 13.0 0.00 0.00 0.00 67 1002.9
20260903082045 69 355 2.0 13.0 0.00 0.00 0.00 67 1003.0
20260903081545 69 5 6.0 13.0 0.00 0.00 0.00 67 1003.0
20260903081042 70 302 2.0 9.0 0.00 0.00 0.00 63 1003.1
20260903080544 72 15 2.0 7.0 0.00 0.00 0.00 62 1003.1
20260903080041 73 42 1.0 3.0 0.00 0.00 0.00 71 1003.3
20260903075542 73 26 0.0 3.0 0.00 0.00 0.00 71 1003.3
20260903075043 73 26 0.0 4.0 0.00 0.00 0.00 70 1003.3
20260903074541 73 22 2.0 4.0 0.00 0.00 0.00 70 1003.2
20260903074040 73 40 0.0 5.0 0.00 0.00 0.00 69 1003.4
20260903073542 74 38 2.0 5.0 0.00 0.00 0.00 69 1003.4
20260903073039 74 316 0.0 5.0 0.00 0.00 0.00 70 1003.4
20260903072638 73 311 4.0 9.0 0.00 0.00 0.00 71 1003.2
20260903072041 73 46 5.0 9.0 0.00 0.00 0.00 71 1003.1
20260903071552 72 24 1.0 6.0 0.00 0.00 0.00 71 1003.1
20260903071038 72 355 1.0 7.0 0.00 0.00 0.00 71 1003.3
20260903070537 72 286 2.0 4.0 0.00 0.00 0.00 71 1003.4
20260903070036 72 267 0.0 3.0 0.00 0.00 0.00 71 1002.9
20260903065538 72 267 0.0 4.0 0.00 0.00 0.00 70 1002.8
20260903065036 73 264 1.0 9.0 0.00 0.00 0.00 70 1003.0
20260903064537 73 262 2.0 12.0 0.00 0.00 0.00 70 1003.0
20260903064033 73 194 6.0 15.0 0.00 0.00 0.00 70 1002.8
20260903063532 73 178 5.0 16.0 0.00 0.00 0.00 69 1002.2
20260903063032 73 121 8.0 18.0 0.00 0.00 0.00 69 1001.9
20260903062632 73 124 11.0 15.0 0.00 0.00 0.00 69 1001.7
20260903062034 73 132 9.0 15.0 0.00 0.00 0.00 69 1001.8
20260903061534 74 132 11.0 16.0 0.00 0.00 0.00 69 1001.8
20260903061036 74 165 10.0 16.0 0.00 0.00 0.00 69 1001.8
20260903060534 74 139 7.0 13.0 0.00 0.00 0.00 69 1001.9
20260903060033 74 122 7.0 14.0 0.00 0.00 0.00 68 1002.0
20260903055533 73 185 5.0 12.0 0.00 0.00 0.00 68 1002.0
20260903055033 73 188 3.0 12.0 0.00 0.00 0.00 68 1002.2
20260903054535 74 182 4.0 16.0 0.00 0.00 0.00 67 1002.1
20260903054036 74 117 7.0 19.0 0.00 0.00 0.00 67 1001.7
20260903053534 74 115 10.0 19.0 0.00 0.00 0.00 67 1001.2
20260903053035 74 89 13.0 19.0 0.00 0.00 0.00 67 1001.5
20260903052632 74 134 11.0 19.0 0.00 0.00 0.00 67 1001.6
20260903052034 74 136 10.0 17.0 0.00 0.00 0.00 67 1001.5
20260903051552 74 123 9.0 17.0 0.00 0.00 0.00 67 1001.5
20260903051033 74 138 10.0 16.0 0.00 0.00 0.00 67 1001.3
20260903050537 74 107 8.0 14.0 0.00 0.00 0.00 67 1001.2
20260903050033 74 111 8.0 14.0 0.00 0.00 0.00 67 1001.4
20260903045532 74 117 6.0 13.0 0.00 0.00 0.00 67 1001.6
20260903045031 74 102 6.0 13.0 0.00 0.00 0.00 66 1002.0
20260903044539 74 106 5.0 12.0 0.00 0.00 0.00 66 1002.0
20260903044030 74 136 5.0 12.0 0.00 0.00 0.00 66 1002.7
20260903043532 75 94 6.0 12.0 0.00 0.00 0.00 66 1002.7
20260903043107 75 125 5.0 11.0 0.00 0.00 0.00 66 1003.0
20260903042027 75 144 3.0 12.0 0.00 0.00 0.00 65 1002.8
20260903041527 76 105 5.0 12.0 0.00 0.00 0.00 65 1002.9
20260903041025 76 85 5.0 13.0 0.00 0.00 0.00 64 1003.0
20260903040525 76 127 6.0 13.0 0.00 0.00 0.00 64 1002.9
20260903040026 76 114 7.0 17.0 0.00 0.00 0.00 64 1002.9
20260903035525 76 140 6.0 17.0 0.00 0.00 0.00 63 1003.0
20260903035027 76 121 10.0 16.0 0.00 0.00 0.00 63 1002.9
20260903034536 76 118 7.0 18.0 0.00 0.00 0.00 63 1002.7
20260903034025 77 116 9.0 17.0 0.00 0.00 0.00 63 1002.9
20260903033524 77 92 10.0 17.0 0.00 0.00 0.00 63 1002.8
20260903033026 77 94 7.0 14.0 0.00 0.00 0.00 63 1002.9
20260903032625 77 113 6.0 14.0 0.00 0.00 0.00 63 1002.9
20260903032026 77 138 6.0 14.0 0.00 0.00 0.00 63 1002.8
20260903031523 77 111 7.0 15.0 0.00 0.00 0.00 63 1002.9
20260903031025 77 98 6.0 17.0 0.00 0.00 0.00 63 1002.8
20260903030523 77 124 11.0 16.0 0.00 0.00 0.00 63 1002.8
20260903030023 77 114 7.0 18.0 0.00 0.00 0.00 63 1002.7
20260903025524 78 134 10.0 16.0 0.00 0.00 0.00 63 1002.8
20260903025022 78 148 10.0 20.0 0.00 0.00 0.00 63 1003.0
20260903024525 78 113 9.0 20.0 0.00 0.00 0.00 62 1002.8
20260903024022 78 126 9.0 18.0 0.00 0.00 0.00 62 1002.7
20260903023521 78 152 10.0 18.0 0.00 0.00 0.00 62 1002.8
20260903023021 78 126 7.0 16.0 0.00 0.00 0.00 62 1002.7
20260903022621 79 88 7.0 16.0 0.00 0.00 0.00 61 1002.8
20260903022022 79 175 7.0 16.0 0.00 0.00 0.00 61 1002.9
20260903021522 79 142 7.0 16.0 0.00 0.00 0.00 61 1002.9
20260903021021 79 91 6.0 16.0 0.00 0.00 0.00 60 1002.7
20260903020521 79 152 7.0 17.0 0.00 0.00 0.00 60 1002.7
20260903020024 79 130 4.0 15.0 0.00 0.00 0.00 59 1002.8
20260903015524 80 119 8.0 15.0 0.00 0.00 0.00 59 1002.7
20260903015021 80 135 8.0 13.0 0.00 0.00 0.00 59 1002.8
20260903014523 80 137 7.0 17.0 0.00 0.00 0.00 58 1002.7
20260903014020 80 119 9.0 17.0 0.00 0.00 0.00 58 1002.6
20260903013523 81 105 8.0 14.0 0.00 0.00 0.00 57 1002.6
20260903013022 81 126 7.0 14.0 0.00 0.00 0.00 57 1002.5
20260903012620 81 108 6.0 15.0 0.00 0.00 0.00 56 1002.6
20260903012020 82 116 7.0 15.0 0.00 0.00 0.00 56 1002.6
20260903011523 82 120 10.0 16.0 0.00 0.00 0.00 55 1002.7
20260903011019 82 126 9.0 16.0 0.00 0.00 0.00 54 1002.6
20260903010523 83 114 7.0 15.0 0.00 0.00 0.00 53 1002.6
20260903010020 83 107 8.0 17.0 0.00 0.00 0.00 51 1002.7
20260903005520 84 123 10.0 17.0 0.00 0.00 0.00 49 1002.6
20260903005020 84 130 11.0 17.0 0.00 0.00 0.00 49 1002.8
20260903004519 84 132 11.0 19.0 0.00 0.00 0.00 49 1002.7
20260903004019 84 128 14.0 19.0 0.00 0.00 0.00 50 1002.7
20260903003520 84 130 14.0 19.0 0.00 0.00 0.00 50 1002.5